| time (UTC) | temp C | wind direction | speed KPH | gust KPH | rain 1hr cm | rain 24hr cm | rain mn cm | humidity % | barometer mb |
| 20260902185009 | 20 | 241 | 3.2 | 11.3 | 0.00 | 0.00 | 0.00 | 58 | 1005.0 |
| 20260902184518 | 20 | 219 | 3.2 | 11.3 | 0.00 | 0.00 | 0.00 | 58 | 1005.1 |
| 20260902184011 | 20 | 225 | 3.2 | 12.9 | 0.00 | 0.00 | 0.00 | 56 | 1005.1 |
| 20260902183512 | 20 | 202 | 3.2 | 14.5 | 0.00 | 0.00 | 0.00 | 61 | 1005.1 |
| 20260902183026 | 20 | 168 | 6.4 | 14.5 | 0.00 | 0.00 | 0.00 | 60 | 1005.1 |
| 20260902182516 | 19 | 125 | 1.6 | 9.7 | 0.00 | 0.00 | 0.00 | 66 | 1005.2 |
| 20260902182013 | 18 | 148 | 4.8 | 9.7 | 0.00 | 0.00 | 0.00 | 65 | 1005.3 |
| 20260902181504 | 18 | 253 | 1.6 | 4.8 | 0.00 | 0.00 | 0.00 | 65 | 1005.3 |
| 20260902181012 | 18 | 72 | 1.6 | 4.8 | 0.00 | 0.00 | 0.00 | 67 | 1005.3 |
| 20260902180506 | 18 | 81 | 1.6 | 4.8 | 0.00 | 0.00 | 0.00 | 67 | 1005.4 |
| 20260902180010 | 17 | 84 | 3.2 | 4.8 | 0.00 | 0.00 | 0.00 | 67 | 1005.4 |
| 20260902175508 | 17 | 189 | 0.0 | 3.2 | 0.00 | 0.00 | 0.00 | 69 | 1005.4 |
| 20260902175010 | 17 | 123 | 0.0 | 3.2 | 0.00 | 0.00 | 0.00 | 69 | 1005.5 |
| 20260902174533 | 17 | 96 | 1.6 | 3.2 | 0.00 | 0.00 | 0.00 | 70 | 1005.6 |
| 20260902174011 | 17 | 116 | 0.0 | 6.4 | 0.00 | 0.00 | 0.00 | 71 | 1005.7 |
| 20260902173512 | 17 | 99 | 1.6 | 6.4 | 0.00 | 0.00 | 0.00 | 71 | 1005.7 |
| 20260902173020 | 17 | 210 | 0.0 | 4.8 | 0.00 | 0.00 | 0.00 | 70 | 1005.8 |
| 20260902172514 | 17 | 147 | 1.6 | 4.8 | 0.00 | 0.00 | 0.00 | 70 | 1005.9 |
| 20260902172018 | 17 | 96 | 1.6 | 4.8 | 0.00 | 0.00 | 0.00 | 70 | 1005.9 |
| 20260902171529 | 17 | 96 | 0.0 | 3.2 | 0.00 | 0.00 | 0.00 | 71 | 1006.0 |
| 20260902171018 | 17 | 178 | 0.0 | 9.7 | 0.00 | 0.00 | 0.00 | 70 | 1006.0 |
| 20260902170513 | 17 | 139 | 1.6 | 9.7 | 0.00 | 0.00 | 0.00 | 71 | 1006.2 |
| 20260902170008 | 17 | 115 | 1.6 | 3.2 | 0.00 | 0.00 | 0.00 | 71 | 1006.2 |
| 20260902165507 | 17 | 130 | 0.0 | 3.2 | 0.00 | 0.00 | 0.00 | 71 | 1006.2 |
| 20260902165004 | 16 | 183 | 0.0 | 3.2 | 0.00 | 0.00 | 0.00 | 72 | 1006.3 |
| 20260902164515 | 16 | 217 | 0.0 | 3.2 | 0.00 | 0.00 | 0.00 | 73 | 1006.4 |
| 20260902164010 | 16 | 180 | 0.0 | 3.2 | 0.00 | 0.00 | 0.00 | 72 | 1006.4 |
| 20260902163508 | 16 | 165 | 0.0 | 3.2 | 0.00 | 0.00 | 0.00 | 74 | 1006.5 |
| 20260902163018 | 16 | 201 | 0.0 | 3.2 | 0.00 | 0.00 | 0.00 | 74 | 1006.5 |
| 20260902162512 | 16 | 215 | 0.0 | 3.2 | 0.00 | 0.00 | 0.00 | 73 | 1006.5 |
| 20260902162012 | 17 | 189 | 0.0 | 8.0 | 0.00 | 0.00 | 0.00 | 73 | 1006.6 |
| 20260902161524 | 17 | 182 | 0.0 | 8.0 | 0.00 | 0.00 | 0.00 | 73 | 1006.6 |
| 20260902161016 | 16 | 186 | 0.0 | 4.8 | 0.00 | 0.00 | 0.00 | 75 | 1006.6 |
| 20260902160513 | 16 | 139 | 1.6 | 4.8 | 0.00 | 0.00 | 0.00 | 73 | 1006.7 |
| 20260902160033 | 17 | 207 | 1.6 | 4.8 | 0.00 | 0.00 | 0.00 | 75 | 1006.8 |
| 20260902155518 | 16 | 186 | 0.0 | 6.4 | 0.00 | 0.00 | 0.00 | 76 | 1006.8 |
| 20260902155015 | 16 | 157 | 0.0 | 6.4 | 0.00 | 0.00 | 0.00 | 76 | 1006.8 |
| 20260902154508 | 16 | 173 | 1.6 | 4.8 | 0.00 | 0.00 | 0.00 | 75 | 1006.9 |
| 20260902154006 | 16 | 94 | 0.0 | 4.8 | 0.00 | 0.00 | 0.00 | 76 | 1006.9 |
| 20260902153510 | 16 | 86 | 1.6 | 6.4 | 0.00 | 0.00 | 0.00 | 78 | 1007.1 |
| 20260902153016 | 16 | 94 | 3.2 | 6.4 | 0.00 | 0.00 | 0.00 | 77 | 1007.0 |
| 20260902152511 | 16 | 94 | 1.6 | 9.7 | 0.00 | 0.00 | 0.00 | 78 | 1007.1 |
| 20260902152010 | 16 | 62 | 3.2 | 9.7 | 0.00 | 0.00 | 0.00 | 78 | 1007.1 |
| 20260902151524 | 16 | 92 | 3.2 | 8.0 | 0.00 | 0.00 | 0.00 | 80 | 1007.2 |
| 20260902151011 | 15 | 128 | 1.6 | 4.8 | 0.00 | 0.00 | 0.00 | 81 | 1007.2 |
| 20260902150516 | 15 | 96 | 3.2 | 4.8 | 0.00 | 0.00 | 0.00 | 81 | 1007.2 |
| 20260902150027 | 15 | 79 | 1.6 | 6.4 | 0.00 | 0.00 | 0.00 | 82 | 1007.3 |
| 20260902145514 | 15 | 108 | 3.2 | 6.4 | 0.00 | 0.00 | 0.00 | 82 | 1007.4 |
| 20260902145013 | 15 | 78 | 3.2 | 6.4 | 0.00 | 0.00 | 0.00 | 81 | 1007.6 |
| 20260902144528 | 15 | 98 | 3.2 | 6.4 | 0.00 | 0.00 | 0.00 | 81 | 1007.6 |
| 20260902144018 | 15 | 96 | 1.6 | 4.8 | 0.00 | 0.00 | 0.00 | 82 | 1007.6 |
| 20260902143516 | 15 | 86 | 0.0 | 4.8 | 0.00 | 0.00 | 0.00 | 83 | 1007.7 |
| 20260902143015 | 14 | 127 | 0.0 | 3.2 | 0.00 | 0.00 | 0.00 | 84 | 1007.7 |
| 20260902142510 | 14 | 136 | 0.0 | 1.6 | 0.00 | 0.00 | 0.00 | 84 | 1007.8 |
| 20260902142009 | 13 | 136 | 0.0 | 3.2 | 0.00 | 0.00 | 0.00 | 86 | 1007.8 |
| 20260902141533 | 13 | 67 | 0.0 | 3.2 | 0.00 | 0.00 | 0.00 | 87 | 1007.9 |
| 20260902141015 | 13 | 347 | 0.0 | 0.0 | 0.00 | 0.00 | 0.00 | 88 | 1007.9 |
| 20260902140512 | 13 | 347 | 0.0 | 0.0 | 0.00 | 0.00 | 0.00 | 88 | 1007.9 |
| 20260902140029 | 13 | 347 | 0.0 | 0.0 | 0.00 | 0.00 | 0.00 | 89 | 1007.9 |
| 20260902135516 | 13 | 347 | 0.0 | 0.0 | 0.00 | 0.00 | 0.00 | 89 | 1007.8 |
| 20260902135014 | 12 | 347 | 0.0 | 0.0 | 0.00 | 0.00 | 0.00 | 89 | 1007.9 |
| 20260902134530 | 12 | 347 | 0.0 | 3.2 | 0.00 | 0.00 | 0.00 | 90 | 1007.9 |
| 20260902134015 | 12 | 347 | 0.0 | 3.2 | 0.00 | 0.00 | 0.00 | 89 | 1007.9 |
| 20260902133521 | 12 | 347 | 0.0 | 1.6 | 0.00 | 0.00 | 0.00 | 89 | 1007.9 |
| 20260902133031 | 12 | 347 | 0.0 | 1.6 | 0.00 | 0.00 | 0.00 | 89 | 1007.8 |
| 20260902132521 | 12 | 347 | 0.0 | 3.2 | 0.00 | 0.00 | 0.00 | 89 | 1007.6 |
| 20260902132018 | 13 | 229 | 0.0 | 3.2 | 0.00 | 0.00 | 0.00 | 88 | 1007.7 |
| 20260902131522 | 13 | 229 | 0.0 | 1.6 | 0.00 | 0.00 | 0.00 | 88 | 1007.8 |
| 20260902131012 | 13 | 229 | 0.0 | 6.4 | 0.00 | 0.00 | 0.00 | 87 | 1008.0 |
| 20260902130512 | 13 | 211 | 1.6 | 6.4 | 0.00 | 0.00 | 0.00 | 87 | 1008.1 |
| 20260902130023 | 13 | 103 | 0.0 | 0.0 | 0.00 | 0.00 | 0.00 | 88 | 1008.0 |
| 20260902125514 | 13 | 103 | 0.0 | 0.0 | 0.00 | 0.00 | 0.00 | 88 | 1008.2 |
| 20260902125016 | 13 | 103 | 0.0 | 0.0 | 0.00 | 0.00 | 0.00 | 87 | 1008.2 |
| 20260902124529 | 14 | 103 | 0.0 | 0.0 | 0.00 | 0.00 | 0.00 | 87 | 1008.2 |
| 20260902124015 | 14 | 103 | 0.0 | 0.0 | 0.00 | 0.00 | 0.00 | 87 | 1008.3 |
| 20260902123517 | 14 | 103 | 0.0 | 0.0 | 0.00 | 0.00 | 0.00 | 87 | 1008.3 |
| 20260902123032 | 14 | 103 | 0.0 | 0.0 | 0.00 | 0.00 | 0.00 | 88 | 1008.2 |
| 20260902122504 | 14 | 103 | 0.0 | 0.0 | 0.00 | 0.00 | 0.00 | 88 | 1008.2 |
| 20260902122003 | 14 | 103 | 0.0 | 0.0 | 0.00 | 0.00 | 0.00 | 88 | 1008.3 |
| 20260902121501 | 14 | 103 | 0.0 | 0.0 | 0.00 | 0.00 | 0.00 | 87 | 1008.4 |
| 20260902121001 | 14 | 103 | 0.0 | 0.0 | 0.00 | 0.00 | 0.00 | 87 | 1008.5 |
| 20260902120501 | 14 | 103 | 0.0 | 0.0 | 0.00 | 0.00 | 0.00 | 88 | 1008.5 |
| 20260902120001 | 14 | 103 | 0.0 | 0.0 | 0.00 | 0.00 | 0.00 | 88 | 1008.5 |
| 20260902115500 | 14 | 103 | 0.0 | 0.0 | 0.00 | 0.00 | 0.00 | 88 | 1008.6 |
| 20260902115000 | 14 | 103 | 0.0 | 0.0 | 0.00 | 0.00 | 0.00 | 88 | 1008.6 |
| 20260902114504 | 14 | 103 | 0.0 | 0.0 | 0.00 | 0.00 | 0.00 | 88 | 1008.7 |
| 20260902114003 | 14 | 103 | 0.0 | 0.0 | 0.00 | 0.00 | 0.00 | 88 | 1008.7 |
| 20260902113503 | 14 | 103 | 0.0 | 1.6 | 0.00 | 0.00 | 0.00 | 88 | 1008.7 |
| 20260902113003 | 14 | 103 | 0.0 | 1.6 | 0.00 | 0.00 | 0.00 | 89 | 1008.7 |
| 20260902112504 | 14 | 103 | 0.0 | 0.0 | 0.00 | 0.00 | 0.00 | 89 | 1008.8 |
| 20260902112004 | 14 | 103 | 0.0 | 3.2 | 0.00 | 0.00 | 0.00 | 90 | 1008.7 |
| 20260902111503 | 14 | 103 | 0.0 | 3.2 | 0.00 | 0.00 | 0.00 | 90 | 1008.8 |
| 20260902111006 | 13 | 103 | 0.0 | 3.2 | 0.00 | 0.00 | 0.00 | 91 | 1008.8 |
| 20260902110501 | 13 | 103 | 0.0 | 3.2 | 0.00 | 0.00 | 0.00 | 91 | 1008.8 |
| 20260902110006 | 13 | 182 | 0.0 | 0.0 | 0.00 | 0.00 | 0.00 | 91 | 1008.8 |
| 20260902105505 | 13 | 182 | 0.0 | 0.0 | 0.00 | 0.00 | 0.00 | 91 | 1008.9 |
| 20260902105002 | 13 | 182 | 0.0 | 0.0 | 0.00 | 0.00 | 0.00 | 92 | 1008.9 |
| 20260902104506 | 13 | 182 | 0.0 | 0.0 | 0.00 | 0.00 | 0.00 | 92 | 1009.0 |
| 20260902104004 | 13 | 182 | 0.0 | 0.0 | 0.00 | 0.00 | 0.00 | 92 | 1009.0 |
| 20260902103503 | 13 | 182 | 0.0 | 0.0 | 0.00 | 0.00 | 0.00 | 92 | 1009.0 |
| 20260902103002 | 13 | 182 | 0.0 | 0.0 | 0.00 | 0.00 | 0.00 | 91 | 1009.1 |
| 20260902102502 | 13 | 182 | 0.0 | 0.0 | 0.00 | 0.00 | 0.00 | 91 | 1009.2 |
| 20260902102002 | 13 | 182 | 0.0 | 0.0 | 0.00 | 0.00 | 0.00 | 91 | 1009.2 |
| 20260902101502 | 13 | 182 | 0.0 | 0.0 | 0.00 | 0.00 | 0.00 | 91 | 1009.3 |
| 20260902101003 | 13 | 182 | 0.0 | 0.0 | 0.00 | 0.00 | 0.00 | 91 | 1009.3 |
| 20260902100501 | 13 | 182 | 0.0 | 0.0 | 0.00 | 0.00 | 0.00 | 91 | 1009.3 |
| 20260902100004 | 13 | 182 | 0.0 | 0.0 | 0.00 | 0.00 | 0.00 | 91 | 1009.3 |
| 20260902095502 | 13 | 182 | 0.0 | 0.0 | 0.00 | 0.00 | 0.00 | 91 | 1009.3 |
| 20260902095002 | 13 | 182 | 0.0 | 0.0 | 0.00 | 0.00 | 0.00 | 90 | 1009.3 |
| 20260902094512 | 13 | 182 | 0.0 | 0.0 | 0.00 | 0.00 | 0.00 | 90 | 1009.3 |
| 20260902094001 | 13 | 182 | 0.0 | 0.0 | 0.00 | 0.00 | 0.00 | 90 | 1009.4 |
| 20260902093502 | 14 | 182 | 0.0 | 0.0 | 0.00 | 0.00 | 0.00 | 90 | 1009.3 |
| 20260902093002 | 14 | 197 | 0.0 | 1.6 | 0.00 | 0.00 | 0.00 | 89 | 1009.4 |
| 20260902092501 | 14 | 197 | 0.0 | 1.6 | 0.00 | 0.00 | 0.00 | 89 | 1009.4 |
| 20260902092004 | 14 | 196 | 0.0 | 1.6 | 0.00 | 0.00 | 0.00 | 89 | 1009.2 |
| 20260902091506 | 14 | 235 | 0.0 | 0.0 | 0.00 | 0.00 | 0.00 | 89 | 1009.3 |
| 20260902091001 | 14 | 235 | 0.0 | 0.0 | 0.00 | 0.00 | 0.00 | 89 | 1009.4 |
| 20260902090501 | 14 | 235 | 0.0 | 0.0 | 0.00 | 0.00 | 0.00 | 89 | 1009.4 |
| 20260902090005 | 14 | 235 | 0.0 | 0.0 | 0.00 | 0.00 | 0.00 | 89 | 1009.5 |
| 20260902085505 | 14 | 235 | 0.0 | 3.2 | 0.00 | 0.00 | 0.00 | 89 | 1009.6 |
| 20260902085008 | 14 | 235 | 0.0 | 3.2 | 0.00 | 0.00 | 0.00 | 89 | 1009.6 |
| 20260902084505 | 15 | 235 | 0.0 | 3.2 | 0.00 | 0.00 | 0.00 | 89 | 1009.7 |
| 20260902084002 | 15 | 226 | 0.0 | 3.2 | 0.00 | 0.00 | 0.00 | 89 | 1009.8 |
| 20260902083501 | 15 | 226 | 0.0 | 3.2 | 0.00 | 0.00 | 0.00 | 88 | 1009.9 |
| 20260902083010 | 15 | 162 | 0.0 | 8.0 | 0.00 | 0.00 | 0.00 | 88 | 1009.9 |
| 20260902082502 | 15 | 207 | 1.6 | 8.0 | 0.00 | 0.00 | 0.00 | 88 | 1009.9 |
| 20260902082002 | 15 | 190 | 0.0 | 6.4 | 0.00 | 0.00 | 0.00 | 87 | 1009.9 |
| 20260902081514 | 15 | 213 | 1.6 | 6.4 | 0.00 | 0.00 | 0.00 | 87 | 1009.9 |
| 20260902081007 | 15 | 135 | 0.0 | 3.2 | 0.00 | 0.00 | 0.00 | 87 | 1009.9 |
| 20260902080506 | 15 | 304 | 0.0 | 3.2 | 0.00 | 0.00 | 0.00 | 87 | 1009.9 |
| 20260902080010 | 15 | 157 | 1.6 | 3.2 | 0.00 | 0.00 | 0.00 | 86 | 1009.9 |
| 20260902075505 | 15 | 209 | 0.0 | 3.2 | 0.00 | 0.00 | 0.00 | 87 | 1009.9 |
| 20260902075005 | 15 | 193 | 0.0 | 1.6 | 0.00 | 0.00 | 0.00 | 87 | 1009.9 |
| 20260902074510 | 15 | 193 | 0.0 | 4.8 | 0.00 | 0.00 | 0.00 | 87 | 1009.9 |
| 20260902074007 | 15 | 193 | 0.0 | 4.8 | 0.00 | 0.00 | 0.00 | 87 | 1009.9 |
| 20260902073507 | 15 | 202 | 0.0 | 3.2 | 0.00 | 0.00 | 0.00 | 87 | 1010.0 |
| 20260902073012 | 15 | 202 | 0.0 | 3.2 | 0.00 | 0.00 | 0.00 | 88 | 1010.0 |
| 20260902072506 | 15 | 157 | 0.0 | 3.2 | 0.00 | 0.00 | 0.00 | 88 | 1010.0 |
| 20260902072006 | 15 | 204 | 0.0 | 1.6 | 0.00 | 0.00 | 0.00 | 88 | 1010.0 |
| 20260902071512 | 15 | 119 | 0.0 | 0.0 | 0.00 | 0.00 | 0.00 | 88 | 1010.1 |
| 20260902071003 | 15 | 119 | 0.0 | 0.0 | 0.00 | 0.00 | 0.00 | 88 | 1010.0 |
| 20260902070509 | 15 | 119 | 0.0 | 3.2 | 0.00 | 0.00 | 0.00 | 88 | 1010.0 |
| 20260902070008 | 15 | 119 | 0.0 | 3.2 | 0.00 | 0.00 | 0.00 | 88 | 1010.0 |
| 20260902065506 | 15 | 114 | 0.0 | 6.4 | 0.00 | 0.00 | 0.00 | 88 | 1010.1 |
| 20260902065009 | 15 | 115 | 0.0 | 6.4 | 0.00 | 0.00 | 0.00 | 88 | 1010.1 |
| 20260902064509 | 15 | 182 | 0.0 | 3.2 | 0.00 | 0.00 | 0.00 | 87 | 1010.2 |
| 20260902064005 | 15 | 178 | 0.0 | 0.0 | 0.00 | 0.00 | 0.00 | 87 | 1010.2 |
| 20260902063505 | 15 | 194 | 0.0 | 0.0 | 0.00 | 0.00 | 0.00 | 87 | 1010.2 |
| 20260902063014 | 15 | 194 | 0.0 | 0.0 | 0.00 | 0.00 | 0.00 | 86 | 1010.3 |
| 20260902062508 | 15 | 195 | 0.0 | 3.2 | 0.00 | 0.00 | 0.00 | 86 | 1010.3 |
| 20260902062007 | 15 | 184 | 0.0 | 3.2 | 0.00 | 0.00 | 0.00 | 86 | 1010.3 |
| 20260902061512 | 15 | 173 | 0.0 | 3.2 | 0.00 | 0.00 | 0.00 | 86 | 1010.2 |
| 20260902061007 | 15 | 174 | 1.6 | 3.2 | 0.00 | 0.00 | 0.00 | 86 | 1010.3 |
| 20260902060507 | 15 | 204 | 0.0 | 1.6 | 0.00 | 0.00 | 0.00 | 87 | 1010.3 |
| 20260902060018 | 15 | 186 | 0.0 | 1.6 | 0.00 | 0.00 | 0.00 | 87 | 1010.2 |
| 20260902055509 | 15 | 198 | 0.0 | 0.0 | 0.00 | 0.00 | 0.00 | 87 | 1010.2 |
| 20260902055006 | 15 | 202 | 0.0 | 0.0 | 0.00 | 0.00 | 0.00 | 87 | 1010.2 |
| 20260902054513 | 15 | 202 | 0.0 | 0.0 | 0.00 | 0.00 | 0.00 | 86 | 1010.4 |
| 20260902054007 | 15 | 202 | 0.0 | 3.2 | 0.00 | 0.00 | 0.00 | 86 | 1010.4 |
| 20260902053507 | 15 | 202 | 0.0 | 3.2 | 0.00 | 0.00 | 0.00 | 86 | 1010.4 |
| 20260902053027 | 15 | 211 | 0.0 | 3.2 | 0.00 | 0.00 | 0.00 | 85 | 1010.5 |
| 20260902052512 | 15 | 168 | 0.0 | 3.2 | 0.00 | 0.00 | 0.00 | 85 | 1010.6 |
| 20260902052012 | 15 | 164 | 0.0 | 6.4 | 0.00 | 0.00 | 0.00 | 85 | 1010.6 |
| 20260902051515 | 15 | 219 | 0.0 | 11.3 | 0.00 | 0.00 | 0.00 | 85 | 1010.6 |
| 20260902051012 | 15 | 185 | 1.6 | 11.3 | 0.00 | 0.00 | 0.00 | 86 | 1010.6 |
| 20260902050510 | 15 | 194 | 3.2 | 11.3 | 0.00 | 0.00 | 0.00 | 86 | 1010.5 |
| 20260902050015 | 15 | 202 | 0.0 | 11.3 | 0.00 | 0.00 | 0.00 | 87 | 1010.6 |
| 20260902045511 | 15 | 188 | 0.0 | 4.8 | 0.00 | 0.00 | 0.00 | 88 | 1010.6 |
| 20260902045010 | 15 | 200 | 1.6 | 8.0 | 0.00 | 0.00 | 0.00 | 88 | 1010.6 |
| 20260902044518 | 15 | 196 | 3.2 | 8.0 | 0.00 | 0.00 | 0.00 | 89 | 1010.6 |
| 20260902044008 | 15 | 205 | 0.0 | 6.4 | 0.00 | 0.00 | 0.00 | 89 | 1010.7 |
| 20260902043507 | 15 | 200 | 1.6 | 6.4 | 0.00 | 0.00 | 0.00 | 90 | 1010.7 |
| 20260902043013 | 15 | 98 | 0.0 | 0.0 | 0.00 | 0.00 | 0.00 | 90 | 1010.7 |
| 20260902042509 | 15 | 98 | 0.0 | 0.0 | 0.00 | 0.00 | 0.00 | 89 | 1010.7 |
| 20260902042009 | 15 | 98 | 0.0 | 0.0 | 0.00 | 0.00 | 0.00 | 89 | 1010.7 |
| 20260902041517 | 15 | 98 | 0.0 | 0.0 | 0.00 | 0.00 | 0.00 | 89 | 1010.7 |
| 20260902041010 | 15 | 98 | 0.0 | 0.0 | 0.00 | 0.00 | 0.00 | 90 | 1010.7 |
| 20260902040513 | 15 | 98 | 0.0 | 1.6 | 0.00 | 0.00 | 0.00 | 89 | 1010.7 |
| 20260902040015 | 15 | 98 | 0.0 | 1.6 | 0.00 | 0.00 | 0.00 | 89 | 1010.8 |
| 20260902035509 | 15 | 84 | 0.0 | 3.2 | 0.00 | 0.00 | 0.00 | 90 | 1010.7 |
| 20260902035010 | 15 | 84 | 0.0 | 3.2 | 0.00 | 0.00 | 0.00 | 90 | 1010.8 |
| 20260902034518 | 15 | 86 | 0.0 | 0.0 | 0.00 | 0.00 | 0.00 | 90 | 1010.7 |
| 20260902034011 | 15 | 163 | 0.0 | 0.0 | 0.00 | 0.00 | 0.00 | 90 | 1010.7 |
| 20260902033510 | 15 | 170 | 0.0 | 0.0 | 0.00 | 0.00 | 0.00 | 90 | 1010.7 |
| 20260902033030 | 15 | 170 | 0.0 | 0.0 | 0.00 | 0.00 | 0.00 | 90 | 1010.6 |
| 20260902032509 | 15 | 172 | 0.0 | 0.0 | 0.00 | 0.00 | 0.00 | 90 | 1010.6 |
| 20260902032011 | 15 | 183 | 0.0 | 0.0 | 0.00 | 0.00 | 0.00 | 90 | 1010.6 |
| 20260902031518 | 15 | 186 | 0.0 | 0.0 | 0.00 | 0.00 | 0.00 | 90 | 1010.6 |
| 20260902031009 | 15 | 219 | 0.0 | 4.8 | 0.00 | 0.00 | 0.00 | 89 | 1010.5 |
| 20260902030509 | 15 | 184 | 0.0 | 4.8 | 0.00 | 0.00 | 0.00 | 89 | 1010.4 |
| 20260902030019 | 15 | 160 | 0.0 | 4.8 | 0.00 | 0.00 | 0.00 | 88 | 1010.4 |
| 20260902025512 | 15 | 202 | 1.6 | 6.4 | 0.00 | 0.00 | 0.00 | 88 | 1010.4 |
| 20260902025010 | 15 | 213 | 0.0 | 6.4 | 0.00 | 0.00 | 0.00 | 87 | 1010.4 |
| 20260902024523 | 15 | 199 | 1.6 | 12.9 | 0.00 | 0.00 | 0.00 | 86 | 1010.4 |
| 20260902024012 | 15 | 216 | 3.2 | 12.9 | 0.00 | 0.00 | 0.00 | 84 | 1010.5 |
| 20260902023511 | 16 | 188 | 3.2 | 12.9 | 0.00 | 0.00 | 0.00 | 81 | 1010.5 |
| 20260902023025 | 16 | 191 | 3.2 | 9.7 | 0.00 | 0.00 | 0.00 | 78 | 1010.6 |
| 20260902022514 | 16 | 221 | 3.2 | 14.5 | 0.00 | 0.00 | 0.00 | 76 | 1010.4 |
| 20260902022012 | 16 | 200 | 3.2 | 14.5 | 0.00 | 0.00 | 0.00 | 78 | 1010.2 |
| 20260902021529 | 17 | 214 | 1.6 | 11.3 | 0.00 | 0.00 | 0.00 | 79 | 1010.2 |
| 20260902021012 | 17 | 215 | 1.6 | 4.8 | 0.00 | 0.00 | 0.00 | 78 | 1010.2 |
| 20260902020511 | 17 | 333 | 0.0 | 4.8 | 0.00 | 0.00 | 0.00 | 78 | 1010.2 |
| 20260902020022 | 17 | 236 | 0.0 | 11.3 | 0.00 | 0.00 | 0.00 | 78 | 1010.2 |
| 20260902015514 | 17 | 227 | 1.6 | 11.3 | 0.00 | 0.00 | 0.00 | 78 | 1010.2 |
| 20260902015012 | 17 | 198 | 3.2 | 11.3 | 0.00 | 0.00 | 0.00 | 78 | 1010.2 |
| 20260902014534 | 17 | 209 | 1.6 | 8.0 | 0.00 | 0.00 | 0.00 | 78 | 1010.2 |
| 20260902014017 | 17 | 192 | 1.6 | 6.4 | 0.00 | 0.00 | 0.00 | 78 | 1010.2 |
| 20260902013514 | 17 | 188 | 1.6 | 9.7 | 0.00 | 0.00 | 0.00 | 77 | 1010.1 |
| 20260902013026 | 17 | 211 | 3.2 | 9.7 | 0.00 | 0.00 | 0.00 | 77 | 1010.1 |
| 20260902012512 | 17 | 246 | 0.0 | 6.4 | 0.00 | 0.00 | 0.00 | 77 | 1010.1 |
| 20260902012011 | 17 | 204 | 1.6 | 3.2 | 0.00 | 0.00 | 0.00 | 77 | 1010.1 |
| 20260902011534 | 17 | 216 | 1.6 | 4.8 | 0.00 | 0.00 | 0.00 | 77 | 1010.1 |
| 20260902011015 | 17 | 230 | 0.0 | 8.0 | 0.00 | 0.00 | 0.00 | 77 | 1010.2 |
| 20260902010513 | 17 | 331 | 3.2 | 12.9 | 0.00 | 0.00 | 0.00 | 78 | 1010.2 |
| 20260902010041 | 17 | 180 | 3.2 | 12.9 | 0.00 | 0.00 | 0.00 | 78 | 1010.2 |
| 20260902005512 | 17 | 211 | 1.6 | 8.0 | 0.00 | 0.00 | 0.00 | 78 | 1010.2 |
| 20260902005013 | 17 | 169 | 3.2 | 9.7 | 0.00 | 0.00 | 0.00 | 78 | 1010.2 |
| 20260902004529 | 17 | 207 | 3.2 | 11.3 | 0.00 | 0.00 | 0.00 | 77 | 1010.3 |
| 20260902004016 | 17 | 205 | 3.2 | 11.3 | 0.00 | 0.00 | 0.00 | 76 | 1010.2 |
| 20260902003515 | 17 | 183 | 4.8 | 11.3 | 0.00 | 0.00 | 0.00 | 76 | 1010.2 |
| 20260902003029 | 17 | 215 | 1.6 | 6.4 | 0.00 | 0.00 | 0.00 | 76 | 1010.2 |
| 20260902002504 | 17 | 214 | 1.6 | 11.3 | 0.00 | 0.00 | 0.00 | 75 | 1010.2 |
| 20260902002006 | 17 | 148 | 0.0 | 11.3 | 0.00 | 0.00 | 0.00 | 77 | 1010.3 |
| 20260902001512 | 17 | 159 | 0.0 | 11.3 | 0.00 | 0.00 | 0.00 | 78 | 1010.3 |
| 20260902001005 | 17 | 204 | 4.8 | 9.7 | 0.00 | 0.00 | 0.00 | 78 | 1010.2 |
| 20260902000511 | 17 | 180 | 3.2 | 11.3 | 0.00 | 0.00 | 0.00 | 78 | 1010.3 |
| 20260902000012 | 17 | 207 | 4.8 | 12.9 | 0.00 | 0.00 | 0.00 | 78 | 1010.2 |
| 20260901235512 | 17 | 192 | 4.8 | 12.9 | 0.00 | 0.00 | 0.00 | 78 | 1010.2 |
| 20260901235001 | 17 | 204 | 4.8 | 11.3 | 0.00 | 0.00 | 0.00 | 76 | 1010.3 |
| 20260901234503 | 17 | 214 | 1.6 | 9.7 | 0.00 | 0.00 | 0.00 | 76 | 1010.3 |
| 20260901234001 | 17 | 215 | 1.6 | 8.0 | 0.00 | 0.00 | 0.00 | 75 | 1010.2 |
| 20260901233501 | 17 | 192 | 1.6 | 11.3 | 0.00 | 0.00 | 0.00 | 75 | 1010.2 |
| 20260901233004 | 17 | 215 | 3.2 | 12.9 | 0.00 | 0.00 | 0.00 | 75 | 1010.2 |
| 20260901232502 | 17 | 214 | 3.2 | 12.9 | 0.00 | 0.00 | 0.00 | 75 | 1010.2 |
| 20260901232008 | 17 | 200 | 3.2 | 8.0 | 0.00 | 0.00 | 0.00 | 75 | 1010.2 |
| 20260901231510 | 18 | 171 | 1.6 | 8.0 | 0.00 | 0.00 | 0.00 | 75 | 1010.2 |
| 20260901231005 | 17 | 186 | 1.6 | 8.0 | 0.00 | 0.00 | 0.00 | 77 | 1010.2 |
| 20260901230505 | 17 | 204 | 1.6 | 11.3 | 0.00 | 0.00 | 0.00 | 77 | 1010.2 |
| 20260901230010 | 17 | 214 | 6.4 | 11.3 | 0.00 | 0.00 | 0.00 | 77 | 1010.2 |
| 20260901225509 | 17 | 234 | 3.2 | 12.9 | 0.00 | 0.00 | 0.00 | 77 | 1010.3 |
| 20260901225013 | 17 | 228 | 3.2 | 12.9 | 0.00 | 0.00 | 0.00 | 77 | 1010.3 |
| 20260901224525 | 17 | 165 | 3.2 | 11.3 | 0.00 | 0.00 | 0.00 | 76 | 1010.3 |
| 20260901224012 | 17 | 193 | 1.6 | 11.3 | 0.00 | 0.00 | 0.00 | 76 | 1010.2 |
| 20260901223502 | 17 | 223 | 6.4 | 11.3 | 0.00 | 0.00 | 0.00 | 75 | 1010.3 |
| 20260901223001 | 17 | 197 | 3.2 | 9.7 | 0.00 | 0.00 | 0.00 | 74 | 1010.3 |
| 20260901222507 | 17 | 219 | 1.6 | 9.7 | 0.00 | 0.00 | 0.00 | 74 | 1010.3 |
| 20260901222004 | 18 | 202 | 1.6 | 6.4 | 0.00 | 0.00 | 0.00 | 73 | 1010.4 |
| 20260901221516 | 18 | 164 | 1.6 | 6.4 | 0.00 | 0.00 | 0.00 | 74 | 1010.4 |
| 20260901221006 | 17 | 205 | 1.6 | 9.7 | 0.00 | 0.00 | 0.00 | 75 | 1010.4 |
| 20260901220505 | 17 | 197 | 1.6 | 8.0 | 0.00 | 0.00 | 0.00 | 75 | 1010.5 |
| 20260901220010 | 17 | 198 | 3.2 | 6.4 | 0.00 | 0.00 | 0.00 | 74 | 1010.4 |
| 20260901215505 | 17 | 194 | 1.6 | 3.2 | 0.00 | 0.00 | 0.00 | 74 | 1010.4 |
| 20260901215010 | 18 | 232 | 0.0 | 3.2 | 0.00 | 0.00 | 0.00 | 73 | 1010.4 |
| 20260901214514 | 18 | 257 | 1.6 | 3.2 | 0.00 | 0.00 | 0.00 | 73 | 1010.4 |
| 20260901214009 | 18 | 155 | 1.6 | 4.8 | 0.00 | 0.00 | 0.00 | 73 | 1010.4 |
| 20260901213513 | 18 | 216 | 1.6 | 8.0 | 0.00 | 0.00 | 0.00 | 72 | 1010.4 |
| 20260901213022 | 18 | 268 | 1.6 | 8.0 | 0.00 | 0.00 | 0.00 | 72 | 1010.4 |
| 20260901212513 | 18 | 236 | 0.0 | 4.8 | 0.00 | 0.00 | 0.00 | 72 | 1010.4 |
| 20260901212001 | 18 | 220 | 1.6 | 4.8 | 0.00 | 0.00 | 0.00 | 72 | 1010.4 |
| 20260901211509 | 18 | 229 | 1.6 | 6.4 | 0.00 | 0.00 | 0.00 | 73 | 1010.4 |
| 20260901211004 | 18 | 211 | 1.6 | 6.4 | 0.00 | 0.00 | 0.00 | 72 | 1010.4 |
| 20260901210506 | 18 | 266 | 1.6 | 6.4 | 0.00 | 0.00 | 0.00 | 72 | 1010.5 |
| 20260901210006 | 18 | 131 | 1.6 | 11.3 | 0.00 | 0.00 | 0.00 | 73 | 1010.6 |
| 20260901205506 | 18 | 229 | 1.6 | 11.3 | 0.00 | 0.00 | 0.00 | 73 | 1010.6 |
| 20260901205006 | 18 | 194 | 0.0 | 4.8 | 0.00 | 0.00 | 0.00 | 74 | 1010.6 |
| 20260901204515 | 17 | 215 | 3.2 | 8.0 | 0.00 | 0.00 | 0.00 | 73 | 1010.6 |
| 20260901204010 | 17 | 182 | 3.2 | 9.7 | 0.00 | 0.00 | 0.00 | 74 | 1010.7 |
| 20260901203510 | 17 | 208 | 1.6 | 9.7 | 0.00 | 0.00 | 0.00 | 73 | 1010.7 |
| 20260901203023 | 18 | 186 | 3.2 | 9.7 | 0.00 | 0.00 | 0.00 | 73 | 1010.7 |
| 20260901202514 | 18 | 332 | 1.6 | 9.7 | 0.00 | 0.00 | 0.00 | 72 | 1010.7 |
| 20260901202012 | 18 | 195 | 1.6 | 9.7 | 0.00 | 0.00 | 0.00 | 73 | 1010.6 |
| 20260901201524 | 18 | 248 | 1.6 | 8.0 | 0.00 | 0.00 | 0.00 | 73 | 1010.7 |
| 20260901201012 | 17 | 206 | 1.6 | 6.4 | 0.00 | 0.00 | 0.00 | 73 | 1010.7 |
| 20260901200506 | 17 | 158 | 1.6 | 8.0 | 0.00 | 0.00 | 0.00 | 73 | 1010.8 |
| 20260901200016 | 17 | 188 | 3.2 | 8.0 | 0.00 | 0.00 | 0.00 | 73 | 1010.7 |
| 20260901195506 | 18 | 190 | 1.6 | 4.8 | 0.00 | 0.00 | 0.00 | 72 | 1010.8 |
| 20260901195007 | 18 | 205 | 1.6 | 6.4 | 0.00 | 0.00 | 0.00 | 72 | 1010.7 |
| 20260901194508 | 18 | 177 | 1.6 | 6.4 | 0.00 | 0.00 | 0.00 | 71 | 1010.7 |
| 20260901194009 | 18 | 221 | 0.0 | 6.4 | 0.00 | 0.00 | 0.00 | 70 | 1010.7 |
| 20260901193510 | 18 | 200 | 0.0 | 6.4 | 0.00 | 0.00 | 0.00 | 71 | 1010.7 |
| 20260901193016 | 18 | 205 | 0.0 | 4.8 | 0.00 | 0.00 | 0.00 | 71 | 1010.7 |
| 20260901192514 | 18 | 238 | 0.0 | 11.3 | 0.00 | 0.00 | 0.00 | 70 | 1010.7 |
| 20260901192014 | 18 | 234 | 1.6 | 11.3 | 0.00 | 0.00 | 0.00 | 72 | 1010.7 |
| 20260901191526 | 18 | 215 | 1.6 | 8.0 | 0.00 | 0.00 | 0.00 | 72 | 1010.7 |
| 20260901191021 | 18 | 215 | 0.0 | 8.0 | 0.00 | 0.00 | 0.00 | 73 | 1010.7 |
| 20260901190514 | 18 | 225 | 1.6 | 8.0 | 0.00 | 0.00 | 0.00 | 73 | 1010.8 |
| 20260901190033 | 18 | 309 | 1.6 | 8.0 | 0.00 | 0.00 | 0.00 | 73 | 1010.8 |
| 20260901185516 | 18 | 206 | 1.6 | 6.4 | 0.00 | 0.00 | 0.00 | 74 | 1010.9 |